OBJECT U, 63228

Orbit data source: Space-Track

You're viewing an uncataloged RSO

Recently launched and/or uncataloged RSOs may have evolving metadata. Metadata may include the following, but is not limited to: Owner, Manufacturer, Bus, Motor, and Mission.

OBJECT U, 63228 is a satellite in SSO that was launched on Sat, 15 Mar 2025 UTC via an FALCON 9 launch vehicle from the Air Force Western Test Range (AFWTR). Unknown objects in Earth's orbit typically refer to objects detected orbiting the Earth but have not yet been identified or cataloged. These objects could be anything from previously untracked satellites, spent rocket stages, debris from satellite collisions, or even natural meteoroids temporarily captured by Earth's gravity.

Loading next visibility...
Identifier
63228, 2025-052U
Orbit
SSO
Country
Flag of TBDTBD
Related business
None
Manufacturer
Unknown
Mission
Operational Commercial Technology
Bus & Motor
Unknown
Mass
Unknown
Launch date (UTC)
2025-03-15 (2 years ago)
Launch vehicle
FALCON 9
Launch site
Air Force Western Test Range (AFWTR)
Object type
Unknown
Shape & HBR
Box, 0.2 m
Radar Cross Section
0.054 m², Medium (>0.1 m² and < 1m²)

Expand to show TLE details & history
Last TLE update: 10 hours ago

TLE from 10 hours ago
0 OBJECT U
1 63228U 25052U   26264.94003625  .00003474  00000-0  14433-3 0  9990
2 63228  97.3770 156.2482 0005543 150.2898 209.8656 15.24462042 84608
Epoch: 2026-09-21T22:33Z
TLE epoch observation values (Epoch: 2026-09-21T22:33:39.131Z)
Latitude
0.00001°
Longitude
177.02249°
Altitude
498.802 km
Speed
7.613 km/s
True Right ascension
10h 24m 59s
True Declination
0° 00' 00"
Sunlit
Object was in daylight at epoch
Visualization orbit readout
Latitude
Unknown
Longitude
Unknown
Altitude
Unknown
Speed
Unknown
Apparent Right ascension
Unknown
Apparent Declination
Unknown
Sunlit
N/A
Visualization observer readout
Local Sidereal Time
02:00:54
Azimuth
Unknown
Elevation
Unknown
Doppler factor
Unknown
Orbital elements
Apogee altitude
493.167 km
Perigee altitude
485.553 km
Semi-major axis
6,867.497 km
Eccentricity
0.00055
Inclination
97.377°
RAAN
156.2482°
Arg. of periapsis
150.2898°
True anomaly
209.83399°
Mean anomaly
209.8656°
Eccentric anomaly
209.84979°
Mean motion
3.81369 °/min
Orbital period
94.4 mins
BSTAR
0.00014433
Loading maneuver chart data...
Computing Atmospheric mass density...
Loading historical data...
Loading historical data...
Loading historical data...
Loading historical data...
Loading historical data...
Loading historical data...
Loading historical data...

Documentation

Showing up to 5 results
|